• En España
  • Lista de países
  • Para 7 días
  • Temperatura del agua
  • Mapa Satelital
  • El tiempo en el mapa
  • Informadores
  • user-avatar
    Iniciar sesión

    Tiempo cada hora Sao Domingos de Rana

    Hoy, 19 Enero, Viernes

    Tiempo Temperatura Precipitaciones Viento Presión Humedad
    00:00 +9°C° 0 mm 8 mps 762 mmHg 88%
    01:00 +10°C° 0 mm 8 mps 762 mmHg 88%
    02:00 +10°C° 0 mm 8 mps 761 mmHg 88%
    03:00 +9°C° 0 mm 8 mps 761 mmHg 88%
    04:00 +9°C° 0 mm 8 mps 761 mmHg 88%
    05:00 +9°C° 0 mm 7 mps 761 mmHg 88%
    06:00 +9°C° 0 mm 7 mps 762 mmHg 86%
    07:00 +9°C° 0 mm 7 mps 762 mmHg 83%
    08:00 +9°C° 0 mm 7 mps 762 mmHg 81%
    09:00 +11°C° 0 mm 7 mps 763 mmHg 73%
    10:00 +14°C° 0 mm 7 mps 763 mmHg 66%
    11:00 +16°C° 0 mm 7 mps 764 mmHg 59%
    12:00 +17°C° 0 mm 7 mps 763 mmHg 58%
    13:00 +17°C° 0 mm 7 mps 763 mmHg 57%
    14:00 +18°C° 0 mm 7 mps 763 mmHg 56%
    15:00 +16°C° 0 mm 7 mps 764 mmHg 64%
    16:00 +14°C° 0 mm 6 mps 764 mmHg 72%
    17:00 +13°C° 0 mm 6 mps 764 mmHg 80%
    18:00 +11°C° 0 mm 6 mps 765 mmHg 83%
    19:00 +10°C° 0 mm 6 mps 765 mmHg 85%
    20:00 +9°C° 0 mm 6 mps 766 mmHg 88%
    21:00 +9°C° 0 mm 6 mps 766 mmHg 88%
    22:00 +8°C° 0 mm 5 mps 766 mmHg 89%
    23:00 +8°C° 0 mm 5 mps 766 mmHg 90%

    Mañana, 20 Enero, Sábado

    Tiempo Temperatura Precipitaciones Viento Presión Humedad
    00:00 +8°C° 0 mm 5 mps 767 mmHg 90%
    01:00 +7°C° 0 mm 5 mps 767 mmHg 91%
    02:00 +7°C° 0 mm 4 mps 767 mmHg 92%
    03:00 +7°C° 0 mm 4 mps 767 mmHg 92%
    04:00 +7°C° 0 mm 4 mps 767 mmHg 92%
    05:00 +7°C° 0 mm 4 mps 767 mmHg 93%
    06:00 +7°C° 0 mm 4 mps 767 mmHg 92%
    07:00 +7°C° 0 mm 4 mps 767 mmHg 91%
    08:00 +9°C° 0 mm 3 mps 768 mmHg 90%
    09:00 +11°C° 0 mm 3 mps 768 mmHg 80%
    10:00 +13°C° 0 mm 4 mps 768 mmHg 71%
    11:00 +15°C° 0 mm 4 mps 769 mmHg 61%
    12:00 +17°C° 0 mm 4 mps 768 mmHg 59%
    13:00 +17°C° 0 mm 4 mps 768 mmHg 56%
    14:00 +18°C° 0 mm 3 mps 767 mmHg 53%
    15:00 +15°C° 0 mm 4 mps 768 mmHg 61%
    16:00 +14°C° 0 mm 4 mps 768 mmHg 70%
    17:00 +12°C° 0 mm 4 mps 768 mmHg 78%
    18:00 +11°C° 0 mm 4 mps 768 mmHg 82%
    19:00 +11°C° 0 mm 4 mps 769 mmHg 86%
    20:00 +10°C° 0 mm 4 mps 769 mmHg 89%
    21:00 +10°C° 0 mm 4 mps 769 mmHg 90%
    22:00 +10°C° 0 mm 3 mps 769 mmHg 92%
    23:00 +10°C° 0 mm 3 mps 769 mmHg 93%

    Pasado mañana, 21 Enero, Domingo

    Tiempo Temperatura Precipitaciones Viento Presión Humedad
    00:00 +10°C° 0 mm 3 mps 769 mmHg 93%
    01:00 +10°C° 0 mm 3 mps 769 mmHg 94%
    02:00 +10°C° 0 mm 3 mps 769 mmHg 95%
    03:00 +10°C° 0 mm 3 mps 769 mmHg 95%
    04:00 +10°C° 0 mm 3 mps 769 mmHg 96%
    05:00 +10°C° 0 mm 3 mps 769 mmHg 96%
    06:00 +10°C° 0 mm 3 mps 769 mmHg 95%
    07:00 +12°C° 0 mm 2 mps 769 mmHg 95%
    08:00 +13°C° 0 mm 2 mps 769 mmHg 94%
    09:00 +14°C° 0 mm 2 mps 769 mmHg 87%
    10:00 +16°C° 0 mm 2 mps 769 mmHg 79%
    11:00 +17°C° 0 mm 2 mps 769 mmHg 72%
    12:00 +18°C° 0 mm 3 mps 769 mmHg 70%
    13:00 +18°C° 0 mm 3 mps 768 mmHg 67%
    14:00 +19°C° 0 mm 4 mps 768 mmHg 65%
    15:00 +17°C° 0 mm 4 mps 768 mmHg 72%
    16:00 +15°C° 0 mm 4 mps 768 mmHg 79%
    17:00 +13°C° 0 mm 4 mps 768 mmHg 85%
    18:00 +13°C° 0 mm 4 mps 768 mmHg 88%
    19:00 +12°C° 0 mm 3 mps 769 mmHg 90%
    20:00 +11°C° 0 mm 3 mps 769 mmHg 93%
    21:00 +11°C° 0 mm 3 mps 769 mmHg 93%
    22:00 +11°C° 0 mm 3 mps 769 mmHg 94%
    23:00 +11°C° 0 mm 3 mps 769 mmHg 94%

    22 Enero, Lunes

    Tiempo Temperatura Precipitaciones Viento Presión Humedad
    00:00 +10°C° 0 mm 3 mps 769 mmHg 94%
    01:00 +10°C° 0 mm 3 mps 768 mmHg 94%
    02:00 +10°C° 0 mm 3 mps 768 mmHg 94%
    03:00 +10°C° 0 mm 3 mps 768 mmHg 94%
    04:00 +10°C° 0 mm 3 mps 768 mmHg 94%
    05:00 +10°C° 0 mm 3 mps 768 mmHg 95%
    06:00 +10°C° 0 mm 3 mps 768 mmHg 94%
    07:00 +10°C° 0 mm 2 mps 768 mmHg 93%
    08:00 +12°C° 0 mm 2 mps 768 mmHg 92%
    09:00 +14°C° 0 mm 2 mps 768 mmHg 84%
    10:00 +16°C° 0 mm 3 mps 768 mmHg 75%
    11:00 +17°C° 0 mm 3 mps 768 mmHg 67%
    12:00 +18°C° 0 mm 3 mps 768 mmHg 64%
    13:00 +18°C° 0 mm 4 mps 768 mmHg 61%
    14:00 +19°C° 0 mm 4 mps 767 mmHg 59%
    15:00 +17°C° 0 mm 4 mps 767 mmHg 66%
    16:00 +14°C° 0 mm 4 mps 767 mmHg 73%
    17:00 +13°C° 0 mm 4 mps 767 mmHg 80%
    18:00 +12°C° 0 mm 4 mps 768 mmHg 83%
    19:00 +11°C° 0 mm 4 mps 768 mmHg 87%
    20:00 +10°C° 0 mm 4 mps 768 mmHg 90%
    21:00 +10°C° 0 mm 4 mps 768 mmHg 91%
    22:00 +8°C° 0 mm 4 mps 768 mmHg 91%
    23:00 +8°C° 0 mm 4 mps 768 mmHg 92%

    23 Enero, Martes

    Tiempo Temperatura Precipitaciones Viento Presión Humedad
    00:00 +8°C° 0 mm 4 mps 768 mmHg 92%
    01:00 +8°C° 0 mm 3 mps 767 mmHg 92%
    02:00 +8°C° 0 mm 3 mps 767 mmHg 92%
    03:00 +8°C° 0 mm 3 mps 767 mmHg 92%
    04:00 +7°C° 0 mm 3 mps 767 mmHg 92%
    05:00 +7°C° 0 mm 3 mps 767 mmHg 92%
    06:00 +7°C° 0 mm 3 mps 767 mmHg 89%
    07:00 +8°C° 0 mm 3 mps 767 mmHg 86%
    08:00 +8°C° 0 mm 3 mps 767 mmHg 83%
    09:00 +10°C° 0 mm 2 mps 767 mmHg 73%
    10:00 +14°C° 0 mm 2 mps 767 mmHg 63%
    11:00 +16°C° 0 mm 2 mps 767 mmHg 53%
    12:00 +17°C° 0 mm 2 mps 766 mmHg 50%
    13:00 +18°C° 0 mm 2 mps 766 mmHg 47%
    14:00 +19°C° 0 mm 2 mps 765 mmHg 43%
    15:00 +17°C° 0 mm 2 mps 765 mmHg 49%
    16:00 +15°C° 0 mm 2 mps 765 mmHg 55%
    17:00 +13°C° 0 mm 2 mps 765 mmHg 61%
    18:00 +13°C° 0 mm 2 mps 765 mmHg 63%
    19:00 +12°C° 0 mm 2 mps 765 mmHg 65%
    20:00 +10°C° 0 mm 2 mps 766 mmHg 67%
    21:00 +10°C° 0 mm 2 mps 765 mmHg 70%
    22:00 +9°C° 0 mm 2 mps 765 mmHg 72%
    23:00 +9°C° 0 mm 2 mps 765 mmHg 74%

    24 Enero, Miércoles

    Tiempo Temperatura Precipitaciones Viento Presión Humedad
    00:00 +9°C° 0 mm 3 mps 764 mmHg 76%
    01:00 +8°C° 0 mm 3 mps 764 mmHg 77%
    02:00 +8°C° 0 mm 3 mps 764 mmHg 79%
    03:00 +8°C° 0 mm 3 mps 763 mmHg 80%
    04:00 +7°C° 0 mm 3 mps 763 mmHg 82%
    05:00 +6°C° 0 mm 4 mps 763 mmHg 84%
    06:00 +7°C° 0 mm 4 mps 763 mmHg 82%
    07:00 +7°C° 0 mm 4 mps 763 mmHg 81%
    08:00 +8°C° 0 mm 4 mps 763 mmHg 80%
    09:00 +11°C° 0 mm 4 mps 763 mmHg 72%
    10:00 +13°C° 0 mm 4 mps 763 mmHg 65%
    11:00 +15°C° 0 mm 4 mps 763 mmHg 57%
    12:00 +17°C° 0 mm 4 mps 763 mmHg 57%
    13:00 +18°C° 0 mm 4 mps 762 mmHg 56%
    14:00 +17°C° 0 mm 5 mps 762 mmHg 56%
    15:00 +16°C° 0 mm 5 mps 762 mmHg 65%
    16:00 +14°C° 0 mm 5 mps 762 mmHg 74%
    17:00 +13°C° 0 mm 5 mps 762 mmHg 83%
    18:00 +12°C° 0 mm 5 mps 762 mmHg 87%
    19:00 +12°C° 0 mm 4 mps 763 mmHg 90%
    20:00 +12°C° 0 mm 4 mps 763 mmHg 94%
    21:00 +12°C° 0 mm 4 mps 763 mmHg 94%
    22:00 +12°C° 0 mm 4 mps 764 mmHg 93%
    23:00 +13°C° 0 mm 4 mps 764 mmHg 93%
    Mostrar más